Location: Carlisle
(34.5501°N, 84.5969°W)
Time: 12:31:24
(UTC+00:00)

FO-29 - Visible Passes

Search period start: 02 April 2023 00:00
Search period end: 12 April 2023 00:00
Orbit: 801 x 1320 km, 98.5° (Epoch: 01 April)

Date Brightness Start Highest point End Pass type
(mag) Time Alt. Az. Time Alt. Az. Time Alt. Az.
02 Apr 10.4 10:13:16 10° NNE 10:20:28 59° E 10:26:50 10° S visible
03 Apr 12.1 09:19:43 10° NE 09:24:52 21° E 09:29:36 10° SE visible
04 Apr 10.5 10:08:21 10° NNE 10:15:23 54° E 10:21:34 10° S visible
05 Apr 12.1 09:15:01 10° NE 09:19:42 19° E 09:24:04 10° SE visible
06 Apr 10.7 10:03:26 10° NNE 10:10:16 50° E 10:16:17 10° S visible
07 Apr 12.2 09:10:21 10° NE 09:14:32 17° E 09:18:27 10° SE visible
08 Apr 10.8 09:58:31 10° NNE 10:05:09 45° E 10:10:59 10° S visible
09 Apr 12.2 09:05:44 10° NE 09:09:22 15° E 09:12:46 10° ESE visible
10 Apr 10.9 09:53:37 10° NNE 10:00:00 41° E 10:05:39 10° SSE visible
11 Apr 12.3 09:01:15 10° ENE 09:04:11 13° E 09:06:58 10° ESE visible
11 Apr 9.6 10:43:17 10° N 10:50:07 77° WNW 10:56:05 10° SSW visible
